Regional Weather Roundup
Issued by NWS

Home | Current Version | Previous Version | Graphics & Text | Print | Product List | Glossary On
Versions: 1 2 3 4 5 6 7 8 9 10 11 12 13 14 15 16 17 18 19 20 21 22 23 24 25 26 27 28 29 30 31 32 33 34 35 36 37 38 39 40 41 42 43 44 45 46 47 48 49 50
431
ASUS43 KLMK 072010
RWRKY
KENTUCKY REGIONAL WEATHER ROUNDUP
NATIONAL WEATHER SERVICE LOUISVILLE KY
300 PM EST SUN FEB 07 2016

NOTE "FAIR" INDICATES FEW OR NO CLOUDS BELOW 12,000 FEET
WITH NO SIGNIFICANT WEATHER AND/OR OBSTRUCTIONS TO VISIBILITY.

KYZ001>023-026-027-061>063-070>075-072100-
WESTERN AND SOUTH CENTRAL KENTUCKY

CITY           SKY/WX    TMP DP  RH WIND       PRES   REMARKS
PADUCAH        MOSUNNY   55  24  30 SW17G29   29.95F
HENDERSON      SUNNY     55  28  35 SW20G26   29.93F
OWENSBORO      SUNNY     57  30  36 SW20G26   29.95F
HOPKINSVILLE   SUNNY     55  22  27 SW21      29.99F
BOWLING GREEN  SUNNY     55  18  23 SW15G23   30.01F
GLASGOW        MOSUNNY   53  21  28 SW12      30.00F
$$

KYZ024-025-028>034-038-045-046-053-072100-
NORTH CENTRAL KENTUCKY

CITY           SKY/WX    TMP DP  RH WIND       PRES   REMARKS
LOUISVILLE/SDF PTSUNNY   56  19  23 W17       29.94F
LOUISVILLE/LOU SUNNY     54  20  26 S13G23    29.95F
FORT KNOX      CLOUDY    55  21  27 SW18      29.94F
$$

KYZ035>037-039>044-047>052-055>060-089>105-072100-
NORTHEAST KENTUCKY

CITY           SKY/WX    TMP DP  RH WIND       PRES   REMARKS
LEXINGTON      SUNNY     52  20  28 SW17      29.97F
COVINGTON      MOSUNNY   53  20  27 SW15G24   29.92F
FRANKFORT      SUNNY     52  18  26 SW15G26   29.95F
$$

KYZ054-064>069-076>088-106>120-072100-
SOUTHEAST KENTUCKY

CITY           SKY/WX    TMP DP  RH WIND       PRES   REMARKS
JACKSON        SUNNY     52  21  29 S5        29.99F
LONDON         SUNNY     51  20  29 SW8       30.00F
SOMERSET       SUNNY     50  23  34 SW9G16    30.03F
MIDDLESBORO    SUNNY     53  24  32 SE6       30.00F
MONTICELLO     CLEAR     52  23  32 SW18      30.03F
$$





USA.gov is the U.S. government's official web portal to all federal, state and local government web resources and services.